Hourly Weather Roundup
Issued by NWS Central Illinois

Home | Current Version | Previous Version | Text Only | Print | Product List | Glossary On
Versions: 1 2 3 4 5 6 7 8 9 10 11 12 13 14 15 16 17 18 19 20 21 22 23 24 25 26 27 28 29 30 31 32 33 34 35 36 37 38 39 40 41 42 43 44 45 46 47 48 49 50
000
NZUS43 KILX 230610
HWRILX

AREA WEATHER ROUNDUP
NATIONAL WEATHER SERVICE, LINCOLN IL
100 AM CDT TUE SEP 23 2014


CITY           SKY/WX    TMP DP  RH WIND       PRES   REMARKS
BLOOMINGTON    CLEAR     49  44  83 E8        30.29S
6HR MIN TEMP:  49; 6HR MAX TEMP:  66;

CHAMPAIGN      CLEAR     49  44  83 E8        30.29R
6HR MIN TEMP:  49; 6HR MAX TEMP:  59;

DECATUR        CLEAR     49  44  83 CALM      30.28S
6HR MIN TEMP:  47; 6HR MAX TEMP:  65;

FLORA          NOT AVBL
GALESBURG      CLEAR    N/A N/A N/A CALM      30.26S
JACKSONVILLE   CLEAR     50  46  86 CALM      30.27S
6HR MIN TEMP:  50; 6HR MAX TEMP:  65; 6HR PCP:  0.01;

LACON          CLEAR     45  43  93 CALM      30.26F
6HR MIN TEMP:  45; 6HR MAX TEMP:  58;

LAWRENCEVILLE  CLEAR     48  46  93 CALM      30.29R
6HR MIN TEMP:  47; 6HR MAX TEMP:  60;

LITCHFIELD     CLEAR     48  46  93 CALM      30.27S
$$


CITY           SKY/WX    TMP DP  RH WIND       PRES   REMARKS
LINCOLN        CLEAR     49  45  88 CALM      30.27R
6HR MIN TEMP:  48; 6HR MAX TEMP:  62;

MACOMB         CLEAR     45  45  99 CALM      30.28S
MATTOON        CLEAR     47  44  90 CALM      30.27S
6HR MIN TEMP:  47; 6HR MAX TEMP:  61;

MT CARMEL AP     N/A     46  46 100 CALM      30.28R FOG
OLNEY-NOBLE AP CLEAR     45  45 100 CALM      30.28S
PARIS          CLEAR     44  44  99 CALM      30.30S
6HR MIN TEMP:  44; 6HR MAX TEMP:  56;

PEORIA         CLEAR     51  48  89 CALM      30.27S
6HR MIN TEMP:  51; 6HR MAX TEMP:  63;

PONTIAC        CLEAR     46  46 100 CALM      30.28S
RANTOUL        CLEAR     51  44  76 SE3       30.30S
6HR MIN TEMP:  51; 6HR MAX TEMP:  65;

ROBINSON       CLEAR     46  46  99 CALM      30.29S FOG
6HR MIN TEMP:  46; 6HR MAX TEMP:  62;

SPRINGFIELD    CLEAR     48  45  89 CALM      30.28R
6HR MIN TEMP:  47; 6HR MAX TEMP:  63;

TAYLORVILLE    CLEAR     45  45 100 CALM      30.27S
$$

...REGIONAL REPORTS...


CITY           SKY/WX    TMP DP  RH WIND       PRES   REMARKS
CHICAGO O`HARE CLEAR     54  45  71 S3        30.27S
KANKAKEE       CLEAR     46  45  96 CALM      30.30R FOG
MOLINE         CLEAR     48  45  89 CALM      30.26S
MOUNT VERNON   CLEAR     45  41  87 CALM      30.28R
PITTSFIELD     CLEAR     49  47  90 CALM      30.27S
QUINCY         PTCLDY    53  45  74 SE5       30.25S
ROCKFORD       CLEAR     49  45  86 S5        30.28S
$$


CITY           SKY/WX    TMP DP  RH WIND       PRES   REMARKS
BURLINGTON     CLEAR     49  48  97 CALM      30.25S
CEDAR RAPIDS   CLEAR     49  47  93 S3        30.24S
DES MOINES     PTCLDY    57  50  77 S7        30.22S
KIRKSVILLE     PTCLDY    51  32  48 CALM      30.25F
OTTUMWA        MOCLDY    51  49  92 S5        30.24S
ST LOUIS       PTCLDY    57  50  77 CALM      30.26S
$$


CITY           SKY/WX    TMP DP  RH WIND       PRES   REMARKS
TERRE HAUTE    CLEAR     44  43  96 CALM      30.29S
EVANSVILLE     CLEAR     50  47  89 CALM      30.27S
INDIANAPOLIS   CLEAR     51  43  74 NE6       30.29R
LAFAYETTE      CLEAR     47  45  93 CALM      30.30R
MADISON        CLEAR     49  47  93 CALM      30.24S
MILWAUKEE      CLEAR     54  47  77 S5        30.25S
$$




USA.gov is the U.S. government's official web portal to all federal, state and local government web resources and services.